Вернуться в каталог

STARLINK-35261

АктивенСвязьSSO
NORAD 65595·PAYLOAD·🇺🇸 United States

Запущен Sep 13, 2025 с Cape Canaveral Space Force Station

Loading…

Ближайшие Пролёты (ближайшие 24 часа)

TLE

СвежийSource: CelesTrak SupGP

Эпоха: Sep 14, 2026, 22:59 UTC

1 65595C 25207D   26257.95812500  .01410300  00000+0  84939-1 0  2577
2 65595  97.2846 320.6869 0001220 103.9027 358.0928 15.10180059    15

Отслеживайте STARLINK-35261 в реальном времени с AllMySat

Download on the App Store